Location: Curicchi
(45.0167°N, 12.0500°E)
Time: 21:56:20
(UTC+00:00)

NPP - Visible Passes

Search period start: 29 September 2020 00:00
Search period end: 09 October 2020 00:00
Orbit: 826 x 827 km, 98.7° (Epoch: 29 September)

Date Brightness Start Highest point End Pass type
(mag) Time Alt. Az. Time Alt. Az. Time Alt. Az.
29 Sep 6.1 00:37:19 10° NNE 00:38:38 18° NNE 00:38:38 18° NNE visible
29 Sep 5.5 02:18:11 10° N 02:20:07 18° NNW 02:20:07 18° NNW visible
30 Sep 6.4 00:18:45 10° NNE 00:19:30 14° NE 00:19:30 14° NE visible
30 Sep 5.5 01:59:02 10° N 02:00:59 21° NNW 02:00:59 21° NNW visible
01 Oct 5.6 01:40:01 10° N 01:41:51 21° N 01:41:51 21° N visible
02 Oct 5.8 01:21:05 10° N 01:22:42 20° N 01:22:42 20° N visible
02 Oct 5.9 03:03:58 10° NW 03:04:12 10° NW 03:04:12 10° NW visible
03 Oct 6.0 01:02:14 10° NNE 01:03:34 18° NNE 01:03:34 18° NNE visible
03 Oct 5.8 02:43:59 10° NNW 02:45:03 13° NNW 02:45:03 13° NNW visible
04 Oct 6.3 00:43:31 10° NNE 00:44:25 15° NNE 00:44:25 15° NNE visible
04 Oct 5.7 02:24:34 10° NNW 02:25:54 15° NNW 02:25:54 15° NNW visible
05 Oct 6.5 00:24:53 10° NNE 00:25:17 12° NNE 00:25:17 12° NNE visible
05 Oct 5.7 02:05:22 10° N 02:06:46 17° NNW 02:06:46 17° NNW visible
06 Oct 5.8 01:46:18 10° N 01:47:38 17° N 01:47:38 17° N visible
07 Oct 6.0 01:27:20 10° N 01:28:29 17° N 01:28:29 17° N visible
08 Oct 6.2 01:08:29 10° NNE 01:09:21 15° NNE 01:09:21 15° NNE visible
08 Oct 6.0 02:50:31 10° NNW 02:50:50 11° NNW 02:50:50 11° NNW visible
